Tracking 35055 objects as of 18-Aug-2026
HD Live streaming from Space Station
objects crossing your sky now

SITRO-AIS-42

Track SITRO-AIS-42 now!
10-day predictions
SITRO-AIS-42 is classified as:


NORAD ID: 61756
Int'l Code: 2024-199X
Launch date: November 4, 2024
Source: (TBD)
Launch site: VOSTOCHNY COSMODROME (VOSTO)

Uplink (MHz):
Downlink (MHz): 401.125
Beacon (MHz):
Mode: 2k4 GMSK_USP
Call sign: SC2330
Status: Active

Your satellite tracking list
Your tracking list is empty




NASA's NSSDC Master Catalog

Two Line Element Set (TLE):
1 61756U 24199X   26230.61328806  .00157108  00000-0  85154-3 0  9995
2 61756  97.2747 112.8517 0006599 101.1702 259.0308 15.79585111147618
Source of the keplerian elements: AFSPC